Weather History for KPRC - December, 2013

Change the Weather History Date:

Tuesday, December 10, 2013

  Actual Average Record
Temperature  
Mean Temperature 28 °F 38 °F  
Max Temperature 45 °F 52 °F 71 °F (1981)
Min Temperature 10 °F 25 °F 10 °F (2013)
Degree Days  
Heating Degree Days 37    
Month to date heating degree days 307  
Since 1 July heating degree days 1213  
Cooling Degree Days 0    
Month to date cooling degree days 0  
Year to date cooling degree days 1127  
Moisture  
Dew Point 5 °F    
Average Humidity 50    
Maximum Humidity 67    
Minimum Humidity 18    
Precipitation  
Precipitation 0.00 in 0.03 in 0.96 in (1965)
Month to date precipitation 0.13 0.30  
Year to date precipitation 12.76 13.31  
Sea Level Pressure  
Sea Level Pressure 30.29 in    
Wind  
Wind Speed 3 mph (SW)    
Max Wind Speed 8 mph    
Max Gust Speed -    
Visibility 10 miles    
Events      
T = Trace of Precipitation, MM = Missing Value Source: NWS Daily Summary

Daily Weather History Graph

Daily Weather History Graph

Search for Another Location

Airport or City:

Trip Planner

Search our weather history database for the weather conditions in past years. The results will help you decide how hot, cold, wet, or windy it might be!

Date:

Astronomy

Dec. 10, 2013 Rise Set
Actual Time 7:26 AM MST 5:19 PM MST
Civil Twilight 6:58 AM MST 5:47 PM MST
Nautical Twilight 6:26 AM MST 6:18 PM MST
Astronomical Twilight 5:56 AM MST 6:49 PM MST
Moon 1:10 PM MST (12/10) 1:02 AM MST (12/10)
Length of Visible Light 10h 48m
Length of Day
9h 53m
Waxing Gibbous, 62% of the Moon is Illuminated
Dec 10
Waxing Gibbous
Dec 17
Full
Dec 25
Last Quarter
Jan 1
New
Jan 7
First Quarter

Hourly Weather History & Observations

Time (MST) Temp. Windchill Dew Point Humidity Pressure Visibility Wind Dir Wind Speed Gust Speed Precip Events Conditions
12:53 AM 16.0 °F - 3.9 °F 59% 30.40 in 10.0 mi Calm Calm - N/A   Clear
1:53 AM 14.0 °F 6.5 °F 3.9 °F 64% 30.39 in 10.0 mi SW 4.6 mph - N/A   Clear
2:53 AM 15.1 °F 9.4 °F 1.9 °F 56% 30.38 in 10.0 mi SSW 3.5 mph - N/A   Clear
3:53 AM 12.9 °F - 3.0 °F 65% 30.38 in 10.0 mi Calm Calm - N/A   Clear
4:53 AM 10.9 °F - 1.9 °F 67% 30.38 in 10.0 mi Calm Calm - N/A   Clear
5:53 AM 10.9 °F 2.9 °F 1.9 °F 67% 30.39 in 10.0 mi SSW 4.6 mph - N/A   Clear
6:53 AM 10.9 °F 2.9 °F 1.9 °F 67% 30.41 in 10.0 mi South 4.6 mph - N/A   Clear
7:53 AM 12.0 °F 5.9 °F 3.0 °F 67% 30.42 in 10.0 mi South 3.5 mph - N/A   Clear
8:53 AM 19.0 °F - 5.0 °F 54% 30.42 in 10.0 mi Calm Calm - N/A   Clear
9:53 AM 25.0 °F 20.7 °F 9.0 °F 51% 30.40 in 10.0 mi North 3.5 mph - N/A   Clear
10:53 AM 23.0 °F 18.4 °F 12.2 °F 63% 30.34 in 10.0 mi Variable 3.5 mph - N/A   Clear
11:53 AM - - - N/A% - - North - - N/A   Unknown
12:53 PM 35.1 °F 30.1 °F 3.9 °F 27% 30.24 in 10.0 mi NNW 5.8 mph - N/A   Clear
1:53 PM 37.0 °F 33.3 °F 3.9 °F 25% 30.21 in 10.0 mi North 4.6 mph - N/A   Clear
2:53 PM 41.0 °F 39.0 °F 3.9 °F 21% 30.18 in 10.0 mi West 3.5 mph - N/A   Clear
3:53 PM 44.1 °F - 3.9 °F 19% 30.17 in 10.0 mi Calm Calm - N/A   Clear
4:53 PM 41.0 °F 37.1 °F 5.0 °F 23% 30.16 in 10.0 mi NNE 5.8 mph - N/A   Clear
5:53 PM 34.0 °F 31.0 °F 7.0 °F 32% 30.16 in 10.0 mi SW 3.5 mph - N/A   Clear
6:53 PM 28.0 °F 21.7 °F 9.0 °F 45% 30.17 in 10.0 mi South 5.8 mph - N/A   Clear
7:53 PM 27.0 °F 18.7 °F 9.0 °F 47% 30.18 in 10.0 mi SSW 8.1 mph - N/A   Clear
8:53 PM 25.0 °F 16.3 °F 8.1 °F 49% 30.19 in 10.0 mi South 8.1 mph - N/A   Clear
9:53 PM 23.0 °F 17.0 °F 8.1 °F 53% 30.20 in 10.0 mi SSW 4.6 mph - N/A   Clear
10:53 PM 19.9 °F 13.4 °F 8.1 °F 60% 30.22 in 10.0 mi SSW 4.6 mph - N/A   Clear
11:53 PM 19.9 °F 14.9 °F 8.1 °F 60% 30.22 in 10.0 mi SW 3.5 mph - N/A   Clear